Location: Marcé
(47.5801°N, 0.3280°W)
Time: 14:26:02
(UTC+01:00)

Explorer 7 - Pass Details

Date: 01 December 2021
Orbit: 483 x 674 km, 50.3° (Epoch: 19 January)

Event Time Altitude Azimuth Distance (km) Brightness Sun altitude
Rises 14:21:30 0° 283° (WNW) 2,574 10.4 17.6°
Reaches altitude 10° 14:24:23 10° 260° (W) 1,671 9.8 17.4°
Maximum altitude 14:26:37 15° 224° (SW) 1,367 10.5 17.2°
Drops below altitude 10° 14:28:50 10° 187° (S) 1,655 11.0 17.1°
Sets 14:31:41 0° 164° (SSE) 2,535 11.0 16.9°
